Regional Weather Roundup
Issued by NWS Goodland, KS

Home | Current Version | Previous Version | Graphics & Text | Print | Product List | Glossary On
Versions: 1 2 3 4 5 6 7 8 9 10 11 12 13 14 15 16 17 18 19 20 21 22 23 24 25 26 27 28 29 30 31 32 33 34 35 36 37 38 39 40 41 42 43 44 45 46 47 48 49 50
000
ASUS43 KGLD 260859
RWRGLD

GOODLAND FORECAST AREA HOURLY WEATHER ROUNDUP
NATIONAL WEATHER SERVICE GOODLAND KS
200 AM MST MON JAN 26 2015

...OFFICIAL OBSERVATIONS...

CITY           SKY/WX    TMP DP  RH WIND       PRES   REMARKS
GOODLAND KS    PTCLDY    40  30  67 W15       30.11S
HILL CITY KS   CLEAR     35  28  75 W10       30.05S
IMPERIAL NEB   PTCLDY    41  30  65 W13       30.06S
MCCOOK NEB     CLEAR     39  30  70 W15       30.04R
AKRON CO       PTCLDY    37  28  70 W15       30.15S
BURLINGTON CO  PTCLDY    37  29  72 W12       30.14S
LIMON CO       PTCLDY    35  25  66 N5        30.20S
$$

...UNOFFICIAL OBSERVATIONS...

CITY           SKY/WX    TMP DP  RH WIND       PRES   REMARKS
COLBY KS       CLEAR     39  34  81 W14       30.09S
NORTON KS      CLEAR     34  27  75 SW9       30.03R
YUMA CO          N/A     38  29  69 W18         N/A
$$



USA.gov is the U.S. government's official web portal to all federal, state and local government web resources and services.